EW0779 Largo FL US current weather conditions

sailwx.info

Last reported at 2018-Dec-14 18:00 UTC.
Time now 2018-Dec-14 19:11 UTC

Location: N 27°52' W 082°50'.
View on Google Maps.

See reports from other nearby stations

  
Tides and Currents Weather Stations Pressure Air Temp Water Temp Dewpoint Dewpoint Depression Visibility Wind Speed Wind Dir Waves Ship Positions
date/time (UTC)wind fromknots sea level pressurealtimeterstation pressurevisibilityair tempwater tempwave heightnotes
2018-Dec-14 18:00
2018-Dec-14 17:46
2018-Dec-14 17:30
2018-Dec-14 17:15
2018-Dec-14 17:00
2018-Dec-14 16:45
2018-Dec-14 16:30
2018-Dec-14 16:15
2018-Dec-14 16:00
2018-Dec-14 15:46
2018-Dec-14 15:31
2018-Dec-14 15:16
2018-Dec-14 15:01
2018-Dec-14 14:45 161 20.0
2018-Dec-14 14:31 157 20.0
2018-Dec-14 14:17 157 20.6
2018-Dec-14 14:00 157 21.1
2018-Dec-14 13:45
2018-Dec-14 13:31
2018-Dec-14 13:15
2018-Dec-14 13:01
2018-Dec-14 12:45
2018-Dec-14 12:30
2018-Dec-14 12:15
2018-Dec-14 12:00
2018-Dec-14 11:46
2018-Dec-14 11:31
2018-Dec-14 11:16
2018-Dec-14 11:01
2018-Dec-14 10:45
2018-Dec-14 10:30
2018-Dec-14 10:15
2018-Dec-14 10:01
2018-Dec-14 09:45
2018-Dec-14 09:30
2018-Dec-14 09:15
2018-Dec-14 09:00
2018-Dec-14 08:45
2018-Dec-14 08:31
2018-Dec-14 08:16 163 20.6
2018-Dec-14 08:02 151 1 gusting 12 20.6
2018-Dec-14 07:46 150 3 gusting 12 20.6
2018-Dec-14 07:31 161 1 gusting 12 20.6
2018-Dec-14 07:16 129 2 gusting 13 20.6
2018-Dec-14 07:01 123 1 gusting 11 21.1
2018-Dec-14 06:46 159 2 gusting 14 20.6
2018-Dec-14 06:32 144 3 gusting 16 21.1
2018-Dec-14 06:16 161 3 gusting 12 20.6
2018-Dec-14 06:01 126 2 gusting 9 20.6
2018-Dec-14 05:45 148 1 gusting 11 20.6
2018-Dec-14 05:30 177 4 gusting 11 21.1
2018-Dec-14 05:16 135 2 gusting 10 21.1
2018-Dec-14 05:00 163 5 gusting 13 21.1
2018-Dec-14 04:46 136 3 gusting 11 21.1
2018-Dec-14 04:30 178 1 gusting 10 21.1
2018-Dec-14 04:15 125 2 gusting 11 21.1
2018-Dec-14 04:01 141 5 gusting 13 21.1
2018-Dec-14 03:46 094 4 gusting 11 21.7
2018-Dec-14 03:31 151 6 gusting 11 21.7
2018-Dec-14 03:15 101 1 gusting 10 21.7
2018-Dec-14 03:01 132 2 gusting 10 21.7
2018-Dec-14 02:46 134 3 gusting 10 21.7
2018-Dec-14 02:30 125 1 gusting 9 21.7
2018-Dec-14 02:15 143 2 gusting 10 21.7
2018-Dec-14 02:00 117 2 gusting 8 22.2
2018-Dec-14 01:45 148 21.7
2018-Dec-14 01:30 148 21.7
2018-Dec-14 01:15 129 21.7
2018-Dec-14 01:00 139 21.7
2018-Dec-14 00:45 130 21.7
2018-Dec-14 00:30 137 21.7
2018-Dec-14 00:15 117 21.7
2018-Dec-14 00:00 092 21.7
2018-Dec-13 23:45 092 22.2
2018-Dec-13 23:31 092 22.8
2018-Dec-13 23:15 092 22.8
2018-Dec-13 23:00 092 22.8
2018-Dec-13 22:45 112 22.8
2018-Dec-13 22:30 111 23.3
2018-Dec-13 22:15 171 23.3
2018-Dec-13 22:00 171 23.3
2018-Dec-13 21:45 126 23.3
2018-Dec-13 21:30 138 23.9
2018-Dec-13 21:15 145 23.9
2018-Dec-13 21:00 125 23.9
2018-Dec-13 20:45 146 0 gusting 8 23.9
2018-Dec-13 20:30 136 1 gusting 7 23.9
2018-Dec-13 20:15 132 1 gusting 7 23.9
2018-Dec-13 20:00 157 2 gusting 10 24.4
2018-Dec-13 19:45 159 1 gusting 11 24.4
2018-Dec-13 19:30 144 4 gusting 11 24.4
2018-Dec-13 19:17 088 23.9
2018-Dec-13 19:01 141 1 gusting 8 23.9
2018-Dec-13 18:47 140 0 gusting 10 23.9
2018-Dec-13 18:31 123 1 gusting 7 23.9
2018-Dec-13 18:16 132 3 gusting 8 23.9
2018-Dec-13 18:01 146 0 gusting 11 23.3
2018-Dec-13 17:46 141 2 gusting 9 23.3
2018-Dec-13 17:32 140 3 gusting 12 22.8
2018-Dec-13 17:16 084 2 gusting 8 22.8
2018-Dec-13 17:01 130 1 gusting 9 22.2
2018-Dec-13 16:46 127 1 gusting 6 21.7
2018-Dec-13 16:31 117 0 gusting 6 21.1
2018-Dec-13 16:16 094 1 gusting 9 20.6
2018-Dec-13 16:00 086 0 gusting 8 20.6
2018-Dec-13 15:45 130 0 gusting 6 20.6
2018-Dec-13 15:31 088 1 gusting 6 20.6
2018-Dec-13 15:15 071 1 gusting 7 20.0
2018-Dec-13 15:00 125 0 gusting 6 19.4
2018-Dec-13 14:46 098 18.3
2018-Dec-13 14:30 063 0 gusting 6 17.8
2018-Dec-13 14:15 096 0 gusting 6 17.2
2018-Dec-13 14:00 069 2 gusting 6 16.7
2018-Dec-13 13:45
2018-Dec-13 13:31
2018-Dec-13 13:16
2018-Dec-13 13:02
2018-Dec-13 12:46
2018-Dec-13 12:31
2018-Dec-13 12:16
2018-Dec-13 12:01
2018-Dec-13 11:46
2018-Dec-13 11:30
2018-Dec-13 11:15
2018-Dec-13 11:00
2018-Dec-13 10:45
2018-Dec-13 10:30
2018-Dec-13 10:02
2018-Dec-13 09:47
2018-Dec-13 09:30
2018-Dec-13 09:16
2018-Dec-13 09:01
2018-Dec-13 08:46
2018-Dec-13 08:30 078 13.3
2018-Dec-13 08:15 065 13.9
2018-Dec-13 08:00 067 13.9
2018-Dec-13 07:46 072 13.9
2018-Dec-13 07:30 065 0 gusting 4 13.9
2018-Dec-13 07:15 082 13.9
2018-Dec-13 07:00 066 13.9
2018-Dec-13 06:30 065 13.9
2018-Dec-13 06:15 093 13.9
2018-Dec-13 06:00 084 13.9
2018-Dec-13 05:45 088 13.9
2018-Dec-13 05:30 069 13.3
2018-Dec-13 05:15 089 13.3
2018-Dec-13 05:00 085 12.8
2018-Dec-13 04:45 078 12.8
2018-Dec-13 04:30 070 12.8
2018-Dec-13 04:15 101 12.2
2018-Dec-13 04:00 074 12.2
2018-Dec-13 03:45 074 12.2
2018-Dec-13 03:30 071 11.7
2018-Dec-13 03:15 080 11.7
2018-Dec-13 03:00 055 11.7
2018-Dec-13 02:31 025 11.7
2018-Dec-13 02:16 025 11.7
2018-Dec-13 02:02 013 11.7
2018-Dec-13 01:47 013 11.7
2018-Dec-13 01:31 015 11.7
2018-Dec-13 01:17 027 12.2
2018-Dec-13 01:02 063 12.2
2018-Dec-13 00:46 064 12.2
2018-Dec-13 00:32 051 12.8
2018-Dec-13 00:17 018 12.8
2018-Dec-13 00:01 013 12.8
2018-Dec-12 23:47 015 12.8
2018-Dec-12 23:31 021 13.3
2018-Dec-12 23:17 013 13.3
2018-Dec-12 23:02 005 13.9
2018-Dec-12 22:46 018 13.9
2018-Dec-12 22:31 355 14.4
2018-Dec-12 22:16 022 15.0
2018-Dec-12 22:01 355 15.0
2018-Dec-12 21:45 005 15.0
2018-Dec-12 21:31 335 15.0
2018-Dec-12 21:17 005 15.6
2018-Dec-12 21:01 005 15.6
2018-Dec-12 20:46 337 16.1
2018-Dec-12 20:31 360 16.1
2018-Dec-12 20:16 343 16.7
2018-Dec-12 20:01 304 17.8
2018-Dec-12 19:47 315 19.4
2018-Dec-12 19:31 088 18.9
2018-Dec-12 19:16 063 18.3
2018-Dec-12 19:01 114 18.9